EW2672 Weather Reports


Display with metric or nautical units.
time (UTC)temp
F
wind
direction
speed
MPH
gust
MPH
rain 1hr
in
rain 24hr
in
rain mn
in
humidity
%
barometer
mb
20260901234245 97 0.0 4.0 0.00 0.00 0.00 41 1013.4
20260901233741 98 0.0 4.0 0.00 0.00 0.00 40 1013.4
20260901233239 99 0.0 3.0 0.00 0.00 0.00 40 1013.4
20260901232737 99 0.0 3.0 0.00 0.00 0.00 40 1013.4
20260901232235 99 0.0 5.0 0.00 0.00 0.00 39 1013.3
20260901231731 100 196 1.0 5.0 0.00 0.00 0.00 38 1013.4
20260901231229 101 194 1.0 3.0 0.00 0.00 0.00 38 1013.3
20260901230727 101 0.0 2.0 0.00 0.00 0.00 37 1013.4
20260901230225 101 0.0 3.0 0.00 0.00 0.00 37 1013.3
20260901225721 101 0.0 3.0 0.00 0.00 0.00 37 1013.4
20260901225219 101 0.0 4.0 0.00 0.00 0.00 38 1013.4
20260901224717 101 0.0 4.0 0.00 0.00 0.00 38 1013.4
20260901224215 101 0.0 3.0 0.00 0.00 0.00 38 1013.4
20260901223711 100 202 1.0 3.0 0.00 0.00 0.00 39 1013.4
20260901223209 100 202 1.0 4.0 0.00 0.00 0.00 39 1013.4
20260901222707 99 0.0 4.0 0.00 0.00 0.00 39 1013.4
20260901222205 99 0.0 1.0 0.00 0.00 0.00 39 1013.4
20260901221701 99 0.0 4.0 0.00 0.00 0.00 38 1013.6
20260901221159 101 0.0 4.0 0.00 0.00 0.00 38 1013.6
20260901220657 102 0.0 2.0 0.00 0.00 0.00 37 1013.5
20260901220155 101 0.0 5.0 0.00 0.00 0.00 39 1013.5
20260901215651 100 203 1.0 5.0 0.00 0.00 0.00 39 1013.5
20260901215149 99 0.0 2.0 0.00 0.00 0.00 39 1013.5
20260901214647 98 0.0 2.0 0.00 0.00 0.00 39 1013.5
20260901214145 99 0.0 3.0 0.00 0.00 0.00 38 1013.6
20260901213641 99 0.0 4.0 0.00 0.00 0.00 39 1013.6
20260901213139 100 199 1.0 4.0 0.00 0.00 0.00 39 1013.7
20260901212635 99 0.0 2.0 0.00 0.00 0.00 39 1013.7
20260901212133 98 0.0 2.0 0.00 0.00 0.00 40 1013.7
20260901211631 98 0.0 3.0 0.00 0.00 0.00 40 1013.9
20260901211129 99 0.0 3.0 0.00 0.00 0.00 40 1013.9
20260901210625 99 0.0 1.0 0.00 0.00 0.00 39 1014.0
20260901210123 99 0.0 2.0 0.00 0.00 0.00 38 1013.9
20260901205621 98 0.0 2.0 0.00 0.00 0.00 40 1014.1
20260901205119 99 0.0 1.0 0.00 0.00 0.00 39 1014.2
20260901204615 100 0.0 5.0 0.00 0.00 0.00 38 1014.2
20260901204113 100 0.0 5.0 0.00 0.00 0.00 40 1014.3
20260901203611 98 200 1.0 4.0 0.00 0.00 0.00 41 1014.2
20260901203109 98 0.0 4.0 0.00 0.00 0.00 39 1014.3
20260901202605 98 200 1.0 4.0 0.00 0.00 0.00 40 1014.4
20260901202103 99 0.0 1.0 0.00 0.00 0.00 40 1014.5
20260901201601 99 0.0 2.0 0.00 0.00 0.00 41 1014.6
20260901201059 99 0.0 5.0 0.00 0.00 0.00 41 1014.6
20260901200555 98 200 1.0 5.0 0.00 0.00 0.00 41 1014.8
20260901200053 98 0.0 5.0 0.00 0.00 0.00 41 1014.9
20260901195551 97 0.0 8.0 0.00 0.00 0.00 42 1014.8
20260901195049 98 200 4.0 8.0 0.00 0.00 0.00 41 1014.9
20260901194545 99 200 1.0 3.0 0.00 0.00 0.00 41 1015.0
20260901194043 99 200 1.0 3.0 0.00 0.00 0.00 40 1015.0
20260901193541 100 0.0 6.0 0.00 0.00 0.00 40 1015.2
20260901193039 99 0.0 6.0 0.00 0.00 0.00 40 1015.2
20260901192535 99 0.0 2.0 0.00 0.00 0.00 42 1015.3
20260901192033 98 0.0 4.0 0.00 0.00 0.00 43 1015.3
20260901191531 97 200 1.0 4.0 0.00 0.00 0.00 43 1015.4
20260901191029 97 200 1.0 5.0 0.00 0.00 0.00 45 1015.4
20260901190525 97 200 1.0 5.0 0.00 0.00 0.00 44 1015.5
20260901190023 98 0.0 5.0 0.00 0.00 0.00 43 1015.6
20260901185519 98 0.0 5.0 0.00 0.00 0.00 44 1015.7
20260901185017 97 200 1.0 5.0 0.00 0.00 0.00 45 1015.7
20260901184515 97 200 1.0 5.0 0.00 0.00 0.00 45 1015.8
20260901184013 96 0.0 7.0 0.00 0.00 0.00 46 1015.8
20260901183509 95 200 1.0 6.0 0.00 0.00 0.00 48 1016.1
20260901183007 94 200 1.0 5.0 0.00 0.00 0.00 48 1016.1
20260901182505 94 0.0 5.0 0.00 0.00 0.00 48 1016.2
20260901182003 94 200 1.0 6.0 0.00 0.00 0.00 48 1016.3
20260901181458 95 203 2.0 6.0 0.00 0.00 0.00 46 1016.4
20260901180956 96 202 1.0 7.0 0.00 0.00 0.00 46 1016.4
20260901180455 96 0.0 7.0 0.00 0.00 0.00 46 1016.4
20260901175952 95 0.0 7.0 0.00 0.00 0.00 46 1016.6
20260901175448 95 203 2.0 7.0 0.00 0.00 0.00 45 1016.7
20260901174946 95 203 2.0 6.0 0.00 0.00 0.00 46 1016.7
20260901174444 96 203 1.0 5.0 0.00 0.00 0.00 47 1016.8
20260901173942 95 203 1.0 4.0 0.00 0.00 0.00 48 1016.9
20260901173438 95 203 1.0 5.0 0.00 0.00 0.00 48 1017.0
20260901172936 95 204 2.0 5.0 0.00 0.00 0.00 48 1017.0
20260901172434 94 204 1.0 5.0 0.00 0.00 0.00 49 1017.1
20260901171932 94 0.0 7.0 0.00 0.00 0.00 50 1017.2
20260901171428 94 204 2.0 7.0 0.00 0.00 0.00 50 1017.2
20260901170926 94 205 1.0 5.0 0.00 0.00 0.00 50 1017.3
20260901170424 93 205 1.0 5.0 0.00 0.00 0.00 50 1017.3
20260901165922 94 205 1.0 4.0 0.00 0.00 0.00 51 1017.4
20260901165418 93 0.0 2.0 0.00 0.00 0.00 51 1017.4
20260901164916 92 0.0 4.0 0.00 0.00 0.00 52 1017.4
20260901164414 92 205 1.0 4.0 0.00 0.00 0.00 53 1017.4
20260901163912 91 0.0 5.0 0.00 0.00 0.00 54 1017.4
20260901163408 91 0.0 4.0 0.00 0.00 0.00 55 1017.5
20260901162906 91 0.0 4.0 0.00 0.00 0.00 54 1017.6
20260901162402 91 0.0 2.0 0.00 0.00 0.00 55 1017.7
20260901161900 91 0.0 5.0 0.00 0.00 0.00 55 1017.7
20260901161358 91 205 2.0 5.0 0.00 0.00 0.00 56 1017.7
20260901160856 90 0.0 4.0 0.00 0.00 0.00 56 1017.7
20260901160352 90 205 1.0 4.0 0.00 0.00 0.00 57 1017.7
20260901155850 90 0.0 6.0 0.00 0.00 0.00 56 1017.9
20260901155348 90 0.0 3.0 0.00 0.00 0.00 56 1017.8
20260901154846 90 0.0 3.0 0.00 0.00 0.00 56 1017.8
20260901154342 89 0.0 3.0 0.00 0.00 0.00 58 1017.7
20260901153840 89 205 1.0 3.0 0.00 0.00 0.00 57 1017.7
20260901153338 89 0.0 4.0 0.00 0.00 0.00 61 1017.7
20260901152836 88 0.0 4.0 0.00 0.00 0.00 60 1017.6
20260901152332 87 0.0 2.0 0.00 0.00 0.00 61 1017.6
20260901151830 87 0.0 3.0 0.00 0.00 0.00 64 1017.5
20260901151328 86 0.0 3.0 0.00 0.00 0.00 63 1017.6
20260901150826 86 0.0 2.0 0.00 0.00 0.00 65 1017.7
20260901150322 85 0.0 2.0 0.00 0.00 0.00 67 1017.7
20260901145820 85 0.0 2.0 0.00 0.00 0.00 69 1017.8
20260901145318 84 0.0 2.0 0.00 0.00 0.00 70 1017.8
20260901144816 84 0.0 3.0 0.00 0.00 0.00 72 1017.8
20260901144313 84 205 1.0 3.0 0.00 0.00 0.00 71 1017.8
20260901143810 83 205 1.0 3.0 0.00 0.00 0.00 74 1017.8
20260901143308 83 205 1.0 3.0 0.00 0.00 0.00 75 1017.8
20260901142806 82 0.0 2.0 0.00 0.00 0.00 76 1017.8
20260901142305 82 0.0 2.0 0.00 0.00 0.00 77 1017.8
20260901141800 81 0.0 2.0 0.00 0.00 0.00 78 1017.8
20260901141258 81 205 1.0 2.0 0.00 0.00 0.00 78 1017.9
20260901140756 81 0.0 0.0 0.00 0.00 0.00 79 1017.9
20260901140252 80 0.0 2.0 0.00 0.00 0.00 80 1018.0
20260901135750 80 205 1.0 3.0 0.00 0.00 0.00 81 1018.0
20260901135248 79 0.0 3.0 0.00 0.00 0.00 82 1018.0
20260901134746 79 0.0 3.0 0.00 0.00 0.00 82 1017.9
20260901134242 79 0.0 2.0 0.00 0.00 0.00 83 1017.9
20260901133740 78 0.0 0.0 0.00 0.00 0.00 84 1017.9
20260901133236 78 0.0 0.0 0.00 0.00 0.00 85 1017.9
20260901132734 77 0.0 0.0 0.00 0.00 0.00 86 1017.9
20260901132232 77 0.0 0.0 0.00 0.00 0.00 87 1017.8
20260901131730 76 0.0 0.0 0.00 0.00 0.00 88 1017.8
20260901131226 76 0.0 0.0 0.00 0.00 0.00 89 1017.7
20260901130724 75 0.0 0.0 0.00 0.00 0.00 89 1017.6
20260901130222 75 0.0 0.0 0.00 0.00 0.00 89 1017.5
20260901125720 75 0.0 0.0 0.00 0.00 0.00 89 1017.4
20260901125216 75 0.0 0.0 0.00 0.00 0.00 89 1017.4
20260901124714 74 0.0 0.0 0.00 0.00 0.00 88 1017.3
20260901124212 74 0.0 0.0 0.00 0.00 0.00 88 1017.3
20260901123710 74 0.0 0.0 0.00 0.00 0.00 88 1017.3
20260901123206 74 0.0 0.0 0.00 0.00 0.00 87 1017.2
20260901122704 74 0.0 0.0 0.00 0.00 0.00 87 1017.1
20260901122202 75 0.0 0.0 0.00 0.00 0.00 87 1017.0
20260901121700 75 0.0 0.0 0.00 0.00 0.00 87 1017.0
20260901121156 75 0.0 0.0 0.00 0.00 0.00 87 1016.9
20260901120654 75 0.0 0.0 0.00 0.00 0.00 86 1016.9
20260901120152 75 0.0 0.0 0.00 0.00 0.00 86 1016.9
20260901115650 75 0.0 0.0 0.00 0.00 0.00 86 1017.0
20260901115146 76 0.0 0.0 0.00 0.00 0.00 85 1016.9
20260901114644 76 0.0 0.0 0.00 0.00 0.00 85 1016.9
20260901114142 76 0.0 0.0 0.00 0.00 0.00 85 1016.9
20260901113640 76 0.0 0.0 0.00 0.00 0.00 84 1016.9
20260901113136 76 0.0 0.0 0.00 0.00 0.00 84 1016.9
20260901112634 76 0.0 0.0 0.00 0.00 0.00 84 1016.9
20260901112132 77 0.0 0.0 0.00 0.00 0.00 84 1016.8
20260901111630 77 0.0 0.0 0.00 0.00 0.00 83 1016.9
20260901111126 77 0.0 0.0 0.00 0.00 0.00 83 1016.8
20260901110624 77 0.0 0.0 0.00 0.00 0.00 83 1016.8
20260901110120 77 0.0 0.0 0.00 0.00 0.00 83 1016.7
20260901105618 77 0.0 0.0 0.00 0.00 0.00 83 1016.7
20260901105116 77 0.0 0.0 0.00 0.00 0.00 83 1016.8
20260901104614 77 0.0 0.0 0.00 0.00 0.00 82 1016.7
20260901104110 78 0.0 0.0 0.00 0.00 0.00 82 1016.8
20260901103608 78 0.0 0.0 0.00 0.00 0.00 82 1016.9
20260901103106 78 0.0 0.0 0.00 0.00 0.00 82 1016.8
20260901102604 78 0.0 0.0 0.00 0.00 0.00 82 1016.7
20260901102100 78 0.0 0.0 0.00 0.00 0.00 82 1016.6
20260901101558 78 0.0 1.0 0.00 0.00 0.00 82 1016.6
20260901101056 78 0.0 1.0 0.00 0.00 0.00 81 1016.5
20260901100554 78 0.0 0.0 0.00 0.00 0.00 81 1016.5
20260901100050 78 0.0 0.0 0.00 0.00 0.00 81 1016.6
20260901095548 78 0.0 0.0 0.00 0.00 0.00 80 1016.7
20260901095046 78 0.0 0.0 0.00 0.00 0.00 80 1016.6
20260901094544 78 0.0 0.0 0.00 0.00 0.00 80 1016.6
20260901094040 78 0.0 0.0 0.00 0.00 0.00 80 1016.7
20260901093538 79 0.0 0.0 0.00 0.00 0.00 79 1016.8
20260901093036 79 0.0 0.0 0.00 0.00 0.00 79 1016.8
20260901092534 79 0.0 1.0 0.00 0.00 0.00 79 1016.8
20260901092030 79 0.0 1.0 0.00 0.00 0.00 79 1016.8
20260901091528 79 0.0 0.0 0.00 0.00 0.00 78 1016.8
20260901091026 79 0.0 0.0 0.00 0.00 0.00 78 1016.8
20260901090524 79 0.0 0.0 0.00 0.00 0.00 78 1016.8
20260901090020 79 0.0 0.0 0.00 0.00 0.00 77 1016.7
20260901085518 79 0.0 1.0 0.00 0.00 0.00 77 1016.7
20260901085016 79 0.0 1.0 0.00 0.00 0.00 76 1016.6
20260901084514 79 0.0 0.0 0.00 0.00 0.00 76 1016.5
20260901084010 80 0.0 4.0 0.00 0.00 0.00 76 1016.5
20260901083508 80 188 1.0 4.0 0.00 0.00 0.00 75 1016.5
20260901083004 80 0.0 0.0 0.00 0.00 0.00 75 1016.5
20260901082502 80 0.0 0.0 0.00 0.00 0.00 75 1016.5
20260901082000 80 0.0 0.0 0.00 0.00 0.00 74 1016.5
20260901081458 80 0.0 0.0 0.00 0.00 0.00 74 1016.5
20260901080954 80 0.0 0.0 0.00 0.00 0.00 73 1016.5
20260901080452 80 0.0 0.0 0.00 0.00 0.00 73 1016.5
20260901075950 80 0.0 0.0 0.00 0.00 0.00 73 1016.5
20260901075448 80 0.0 0.0 0.00 0.00 0.00 72 1016.6
20260901074944 81 0.0 0.0 0.00 0.00 0.00 72 1016.7
20260901074442 81 0.0 0.0 0.00 0.00 0.00 72 1016.7
20260901073940 81 0.0 0.0 0.00 0.00 0.00 72 1016.7
20260901073438 81 0.0 0.0 0.00 0.00 0.00 72 1016.7
20260901072934 81 0.0 2.0 0.00 0.00 0.00 71 1016.7
20260901072431 81 0.0 2.0 0.00 0.00 0.00 71 1016.7
20260901071930 81 0.0 2.0 0.00 0.00 0.00 71 1016.7
20260901071427 81 0.0 1.0 0.00 0.00 0.00 71 1016.8
20260901070923 81 0.0 2.0 0.00 0.00 0.00 71 1016.7
20260901070421 81 0.0 2.0 0.00 0.00 0.00 71 1016.8
20260901065919 82 0.0 0.0 0.00 0.00 0.00 70 1016.8
20260901065417 82 0.0 0.0 0.00 0.00 0.00 70 1016.8
20260901064913 82 0.0 3.0 0.00 0.00 0.00 70 1016.7
20260901064411 82 0.0 3.0 0.00 0.00 0.00 70 1016.7
20260901063909 82 0.0 4.0 0.00 0.00 0.00 69 1016.6
20260901063407 82 188 1.0 4.0 0.00 0.00 0.00 69 1016.6
20260901062903 82 0.0 4.0 0.00 0.00 0.00 69 1016.4
20260901061859 82 1.0 4.0 0.00 0.00 0.00 68 1016.4
20260901061357 83 0.0 2.0 0.00 0.00 0.00 68 1016.3
20260901060853 83 0.0 2.0 0.00 0.00 0.00 67 1016.4
20260901060351 83 0.0 2.0 0.00 0.00 0.00 67 1016.3
20260901055849 83 0.0 4.0 0.00 0.00 0.00 67 1016.3
20260901055347 83 188 1.0 4.0 0.00 0.00 0.00 66 1016.3
20260901054843 83 0.0 4.0 0.00 0.00 0.00 66 1016.2
20260901054341 83 0.0 3.0 0.00 0.00 0.00 66 1016.3
20260901053837 84 0.0 4.0 0.00 0.00 0.00 66 1016.1
20260901053335 84 0.0 2.0 0.00 0.00 0.00 65 1016.1
20260901052833 84 0.0 4.0 0.00 0.00 0.00 65 1016.2
20260901052331 84 0.0 7.0 0.00 0.00 0.00 65 1016.1
20260901051827 84 188 2.0 7.0 0.00 0.00 0.00 64 1016.1
20260901051325 84 188 1.0 4.0 0.00 0.00 0.00 64 1016.0
20260901050823 84 0.0 4.0 0.00 0.00 0.00 64 1016.0
20260901050321 85 0.0 4.0 0.00 0.00 0.00 63 1016.0
20260901045817 85 188 2.0 5.0 0.00 0.00 0.00 63 1016.0
20260901045315 85 0.0 6.0 0.00 0.00 0.00 62 1016.0
20260901044813 85 188 1.0 6.0 0.00 0.00 0.00 62 1016.0
20260901044311 85 1.0 5.0 0.00 0.00 0.00 62 1015.9
20260901043807 85 188 1.0 5.0 0.00 0.00 0.00 61 1015.9
20260901043305 85 188 1.0 5.0 0.00 0.00 0.00 61 1015.8
20260901042803 86 0.0 4.0 0.00 0.00 0.00 61 1015.8
20260901042301 86 188 1.0 4.0 0.00 0.00 0.00 60 1015.8
20260901041757 86 0.0 7.0 0.00 0.00 0.00 60 1015.8
20260901041255 86 188 2.0 7.0 0.00 0.00 0.00 60 1015.7
20260901040755 86 188 1.0 5.0 0.00 0.00 0.00 59 1015.7
20260901040251 86 0.0 5.0 0.00 0.00 0.00 59 1015.7
20260901035747 87 188 1.0 5.0 0.00 0.00 0.00 58 1015.7
20260901035245 87 188 1.0 9.0 0.00 0.00 0.00 57 1015.7
20260901034743 87 187 2.0 9.0 0.00 0.00 0.00 57 1015.7
20260901034241 87 175 1.0 8.0 0.00 0.00 0.00 56 1015.7
20260901033737 87 175 1.0 8.0 0.00 0.00 0.00 56 1015.6
20260901033235 87 160 1.0 7.0 0.00 0.00 0.00 55 1015.6
20260901032733 87 164 3.0 7.0 0.00 0.00 0.00 54 1015.5
20260901032231 87 167 3.0 5.0 0.00 0.00 0.00 53 1015.4
20260901031727 87 167 1.0 7.0 0.00 0.00 0.00 51 1015.4
20260901031225 87 167 1.0 7.0 0.00 0.00 0.00 50 1015.4
20260901030723 86 0.0 3.0 0.00 0.00 0.00 49 1015.3
20260901030221 86 0.0 2.0 0.00 0.00 0.00 49 1015.3
20260901025717 86 0.0 2.0 0.00 0.00 0.00 49 1015.1
20260901025215 86 0.0 1.0 0.00 0.00 0.00 50 1015.0
20260901024713 85 0.0 0.0 0.00 0.00 0.00 50 1014.9
20260901024211 86 0.0 0.0 0.00 0.00 0.00 50 1015.0
20260901023707 86 0.0 0.0 0.00 0.00 0.00 49 1015.0
20260901023205 86 0.0 0.0 0.00 0.00 0.00 49 1014.9
20260901022701 86 0.0 0.0 0.00 0.00 0.00 49 1014.8
20260901022159 87 0.0 0.0 0.00 0.00 0.00 49 1014.8
20260901021657 87 0.0 0.0 0.00 0.00 0.00 48 1014.7
20260901021155 87 0.0 0.0 0.00 0.00 0.00 48 1014.6
20260901020651 88 0.0 0.0 0.00 0.00 0.00 47 1014.6
20260901020149 88 0.0 0.0 0.00 0.00 0.00 47 1014.5
20260901015647 88 0.0 0.0 0.00 0.00 0.00 46 1014.4
20260901015145 88 0.0 0.0 0.00 0.00 0.00 46 1014.4
20260901014641 89 0.0 0.0 0.00 0.00 0.00 46 1014.3
20260901014139 89 0.0 0.0 0.00 0.00 0.00 45 1014.3
20260901013634 89 0.0 0.0 0.00 0.00 0.00 45 1014.3
20260901013100 90 0.0 0.0 0.00 0.00 0.00 45 1014.2
20260901012557 90 0.0 0.0 0.00 0.00 0.00 44 1014.2
20260901012055 90 0.0 0.0 0.00 0.00 0.00 43 1014.2
20260901011551 91 0.0 0.0 0.00 0.00 0.00 43 1014.1
20260901011049 91 0.0 0.0 0.00 0.00 0.00 42 1014.1
20260901010547 92 0.0 0.0 0.00 0.00 0.00 42 1014.1
20260901010044 92 0.0 0.0 0.00 0.00 0.00 41 1014.1
20260901005541 92 0.0 0.0 0.00 0.00 0.00 41 1014.0
20260901005039 93 0.0 0.0 0.00 0.00 0.00 40 1014.0
20260901004537 93 0.0 3.0 0.00 0.00 0.00 40 1014.0
20260901004034 93 0.0 3.0 0.00 0.00 0.00 40 1014.0
20260901003531 94 0.0 1.0 0.00 0.00 0.00 39 1014.0
20260901003029 94 0.0 2.0 0.00 0.00 0.00 39 1014.0
20260901002527 94 0.0 3.0 0.00 0.00 0.00 39 1014.0
20260901002024 95 0.0 1.0 0.00 0.00 0.00 39 1013.9
20260901001521 95 0.0 3.0 0.00 0.00 0.00 39 1013.9
20260901001019 95 0.0 2.0 0.00 0.00 0.00 39 1013.9
20260901000517 96 0.0 3.0 0.00 0.00 0.00 38 1013.8
20260901000014 96 167 1.0 4.0 0.00 0.00 0.00 38 1013.9
20260831235511 97 0.0 5.0 0.00 0.00 0.00 38 1013.8
20260831235009 97 167 1.0 5.0 0.00 0.00 0.00 37 1013.9
20260831234507 98 0.0 3.0 0.00 0.00 0.00 37 1013.8